Location: White Mills Observatory
(37.5374°N, 86.0303°W)
Time: 02:32:19
(UTC-04:00)

Hubble Space Telescope - Visible Passes

Search period start: 26 July 2016 00:00
Search period end: 05 August 2016 00:00
Orbit: 539 x 543 km, 28.5° (Epoch: 25 July)

Date Brightness Start Highest point End Pass type
(mag) Time Alt. Az. Time Alt. Az. Time Alt. Az.
31 Jul 3.1 06:15:40 10° S 06:17:09 12° SSE 06:18:37 10° SE visible
01 Aug 3.0 06:05:08 10° SSW 06:07:18 14° SSE 06:09:26 10° SE visible
02 Aug 2.8 05:54:53 10° SSW 05:57:27 16° SSE 06:00:00 10° SE visible
03 Aug 2.6 05:45:36 13° SSW 05:47:36 18° SSE 05:50:27 10° SE visible
04 Aug 2.4 05:36:21 17° SSW 05:37:46 20° S 05:40:49 10° ESE visible
